Weather History for KDKK - May, 2014

Change the Weather History Date:

Saturday, May 3, 2014

  Actual Average Record
Temperature  
Mean Temperature 50 °F -  
Max Temperature 60 °F 61 °F 84 °F (1942)
Min Temperature 46 °F 42 °F 28 °F (1939)
Degree Days  
Heating Degree Days 14    
Moisture  
Dew Point 42 °F    
Average Humidity 75    
Maximum Humidity 90    
Minimum Humidity 55    
Precipitation  
Precipitation 0.13 in - - ()
Sea Level Pressure  
Sea Level Pressure 29.76 in    
Wind  
Wind Speed 10 mph (SW)    
Max Wind Speed 21 mph    
Max Gust Speed 39 mph    
Visibility 9 miles    
Events Rain    
Averages and records for this station are not official NWS values.
T = Trace of Precipitation, MM = Missing Value Source: NWS Daily Summary

Daily Weather History Graph

Daily Weather History Graph

Search for Another Location

Airport or City:

Trip Planner

Search our weather history database for the weather conditions in past years. The results will help you decide how hot, cold, wet, or windy it might be!

Date:

Astronomy

May. 03, 2014 Rise Set
Actual Time 6:09 AM EDT 8:19 PM EDT
Civil Twilight 5:38 AM EDT 8:50 PM EDT
Nautical Twilight 5:00 AM EDT 9:28 PM EDT
Astronomical Twilight 4:18 AM EDT 10:10 PM EDT
Moon 9:36 AM EDT (5/3) No Moon Set
Length of Visible Light 15h 11m
Length of Day
14h 09m
Waxing Crescent, 19% of the Moon is Illuminated
May 3
Waxing Crescent
May 6
First Quarter
May 14
Full
May 21
Last Quarter
May 28
New

Hourly Weather History & Observations

Time (EDT) Temp. Windchill Dew Point Humidity Pressure Visibility Wind Dir Wind Speed Gust Speed Precip Events Conditions
12:53 AM 48.9 °F - 43.0 °F 80% 29.83 in 10.0 mi WSW 6.9 mph - N/A   Overcast
1:26 AM 48.0 °F - 43.0 °F 83% 29.83 in 8.0 mi WSW 9.2 mph - 0.00 in Rain Light Rain
1:41 AM 46.9 °F - 44.1 °F 90% 29.82 in 9.0 mi SSW 10.4 mph - 0.00 in Rain Light Rain
1:53 AM 46.9 °F - 44.1 °F 90% 29.82 in 9.0 mi SSW 6.9 mph - 0.00 in Rain Light Rain
2:53 AM 48.0 °F - 43.0 °F 83% 29.80 in 10.0 mi South 6.9 mph - 0.01 in   Overcast
3:53 AM 48.0 °F - 42.1 °F 80% 29.80 in 10.0 mi South 8.1 mph - N/A   Overcast
4:53 AM 46.9 °F - 41.0 °F 80% 29.79 in 10.0 mi SSW 8.1 mph - N/A   Clear
5:53 AM 48.0 °F - 41.0 °F 77% 29.79 in 10.0 mi SSW 11.5 mph 21.9 mph N/A   Mostly Cloudy
6:53 AM 48.0 °F - 39.9 °F 74% 29.79 in 10.0 mi SSW 8.1 mph - N/A   Mostly Cloudy
7:53 AM 48.9 °F - 41.0 °F 74% 29.79 in 10.0 mi South 9.2 mph - N/A   Overcast
8:53 AM 50.0 °F - 41.0 °F 71% 29.79 in 10.0 mi SSW 10.4 mph 23.0 mph N/A   Overcast
9:53 AM 52.0 °F - 42.1 °F 69% 29.78 in 10.0 mi SSW 15.0 mph 24.2 mph N/A   Overcast
10:53 AM 54.0 °F - 41.0 °F 62% 29.76 in 10.0 mi SSW 13.8 mph 24.2 mph N/A   Overcast
11:53 AM 55.9 °F - 39.9 °F 55% 29.73 in 10.0 mi SSW 10.4 mph - N/A   Overcast
12:53 PM 55.9 °F - 39.9 °F 55% 29.72 in 10.0 mi WSW 9.2 mph - N/A   Overcast
1:53 PM 52.0 °F - 44.1 °F 74% 29.72 in 10.0 mi WSW 8.1 mph - 0.00 in Rain Light Rain
2:53 PM 53.1 °F - 44.1 °F 71% 29.70 in 10.0 mi SSW 6.9 mph - 0.02 in Rain Light Rain
4:53 PM 55.0 °F - 42.1 °F 62% 29.65 in 7.0 mi WSW 10.4 mph 26.5 mph 0.01 in Rain Light Rain
5:11 PM 46.9 °F - 44.1 °F 90% 29.68 in 2.5 mi WSW 17.3 mph 39.1 mph 0.03 in Rain Rain
5:18 PM 48.0 °F - 45.0 °F 89% 29.68 in 4.0 mi SW 16.1 mph 26.5 mph 0.05 in Rain Heavy Rain
5:53 PM 52.0 °F - 46.0 °F 80% 29.67 in 10.0 mi SW 12.7 mph - 0.08 in   Mostly Cloudy
6:53 PM 52.0 °F - 43.0 °F 71% 29.69 in 10.0 mi WSW 20.7 mph 32.2 mph N/A   Mostly Cloudy
7:53 PM 48.9 °F - 39.9 °F 71% 29.72 in 10.0 mi WSW 20.7 mph 27.6 mph N/A   Overcast
8:53 PM 46.0 °F 40.2 °F 37.9 °F 73% 29.75 in 10.0 mi West 12.7 mph 19.6 mph 0.01 in Rain Light Rain
9:53 PM 46.0 °F 42.5 °F 39.0 °F 76% 29.78 in 10.0 mi West 6.9 mph - 0.00 in   Overcast
10:53 PM 46.0 °F 40.2 °F 39.0 °F 76% 29.79 in 10.0 mi West 12.7 mph 20.7 mph 0.00 in   Overcast
11:53 PM 46.9 °F - 39.0 °F 74% 29.79 in 10.0 mi WSW 10.4 mph - N/A   Overcast